Tracking 22779 objects as of 10-Apr-2021
HD Live streaming from Space Station
objects crossing your sky now

FREGAT R/B

Track FREGAT R/B now!


NORAD ID: 40891
Int'l Code: 2015-045C
Perigee: 23,471.1 km
Apogee: 23,608.3 km
Inclination: 55.9 °
Period: 858.0 minutes
Semi major axis: 29910 km
RCS: Unknown
Launch date: September 11, 2015
Source: Commonwealth of Independent States (former USSR) (CIS)
Launch site: FRENCH GUIANA (FRGUI)

Note: This is a ROCKET BODY
aabbcc
Your satellite tracking list
Your tracking list is empty




NASA's NSSDC Master Catalog

Two Line Element Set (TLE):
1 40891U 15045C   21099.61962832 -.00000020  00000-0  00000-0 0  9998
2 40891  55.8600 275.6781 0022931 221.2301 138.5635  1.67827498 34204
Source of the keplerian elements: AFSPC